Regional Weather Roundup
Issued by NWS Midland/Odessa, TX

Home | Current Version | Previous Version | Text Only | Print | Product List | Glossary On
Versions: 1 2 3 4 5 6 7 8 9 10 11 12 13 14 15 16 17 18 19 20 21 22 23 24 25 26 27 28 29 30 31 32 33 34 35 36 37 38 39 40 41 42 43 44 45 46 47 48 49 50
000
ASUS44 KMAF 271910
RWRMAF
MIDLAND AREA WEATHER ROUNDUP
NATIONAL WEATHER SERVICE MIDLAND TX
200 PM CDT FRI MAY 27 2016

...IN SOUTHWEST TEXAS AND SOUTHEAST NEW MEXICO...

CITY           SKY/WX    TMP DP  RH WIND       PRES   REMARKS
ALPINE         SUNNY     81  13   7 W16G25    29.99F
ANDREWS        FAIR      82  23  11 W8        29.83F
ARTESIA        SUNNY     82  27  13 S8G20     29.82F
BIG SPRING     SUNNY     82  31  15 SW9G21    29.82F
CARLSBAD       SUNNY     84  20   9 W23G30    29.82F
DRYDEN           N/A     92  23   8 SW10G24   29.79F
FORT STOCKTON  SUNNY     88  20   8 W14G22    29.84F
GUAD PASS      NOT AVBL
HOBBS          SUNNY     82  23  11 W14G29    29.85F
MARFA          SUNNY     77  15   9 SW20G28   29.98F
MIDLAND AIRPK  SUNNY     87  19   8 W21G28    29.82F
MIDLAND INTL   SUNNY     87  18   8 W13G24    29.81F
ODESSA         SUNNY     87  16   7 SW20G30   29.82F
PECOS          SUNNY     87  20   8 W17       29.82F
PRESIDIO       FAIR      86  14   7 S10       29.88F
SEMINOLE       SUNNY     83  24  12 W17G26    29.84S
SNYDER           N/A     83  38  20 W8G18     29.79F
WINK           SUNNY     86  20   9 W18G25    29.80F
$$
...OTHER STATIONS IN TEXAS...

CITY           SKY/WX    TMP DP  RH WIND       PRES   REMARKS
ABILENE        MOSUNNY   81  67  62 S14       29.76F
AMARILLO       MOSUNNY   73  36  25 W9        29.79F
AUSTIN         CLOUDY    69  65  86 NE15G23   29.77F
BROWNSVILLE    CLOUDY    89  77  67 S25G33    29.73F HX 101
CORPUS CHRISTI PTSUNNY   88  79  74 SE22G31   29.69F HX 103
DALLAS FTW     CLOUDY    75  64  68 S16G22    29.73F
DEL RIO        SUNNY     95  29   9 NW15      29.73F
EL PASO        SUNNY     78  23  13 W12G17    29.91F
HOUSTON INT    TSTM      79  73  83 NW9G20    29.75R
LUBBOCK        MOSUNNY   81  29  15 W20G32    29.78F
SAN ANGELO       N/A    N/A N/A N/A MISG      29.78F
SAN ANTONIO    PTSUNNY   89  72  56 SW7       29.71F
WACO           CLOUDY    71  64  78 SE7       29.77F
WICHITA FALLS  NOT AVBL
$$
...OTHER LOCATIONS IN NEW MEXICO...

CITY           SKY/WX    TMP DP  RH WIND       PRES   REMARKS
ALAMAGORDO     SUNNY     75  23  14 W8G16     29.92F
ALBUQUERQUE    PTSUNNY   72  26  18 W15G25    29.92F
CANNON AFB     SUNNY     74  32  21 W18G26    29.82F
CLOVIS         SUNNY     75  34  22 W18G28    29.82F
HOLLOMAN AFB   MOSUNNY   76  26  15 VRB5      29.89F
ROSWELL        SUNNY     83  20   9 W14G26    29.82F
RUIDOSO          N/A     64  23  20 W9G21     30.01S
SANTA FE       CLOUDY    66  29  24 NW8       29.91F
TRUTH OR CONSE SUNNY     75  24  15 VRB3G17   29.91F
TUCUMCARI      MOSUNNY   74  33  22 W8G18     29.82F
$$




USA.gov is the U.S. government's official web portal to all federal, state and local government web resources and services.